{"data":{"norad_id":48124,"intl_designator":"2021-027AJ","name":"STARLINK-2465","alt_names":[],"object_type":"PAYLOAD","status":"ACTIVE","operator":null,"country":"US","launch_date":"2021-04-07","launch_site_code":"AFETR","launch_vehicle":null,"mission":null,"orbit_class":"UNKNOWN","rcs_meters":null,"size_class":null,"mass_kg":null,"dimensions":null,"purposes":["comms"],"wikipedia_slug":null,"has_3d_model":false,"image_url":null,"decayed_at":null,"tle_current":{"epoch":"2026-09-20T04:22:43.172832Z","epoch_age_seconds":57355,"freshness":"FRESH","line1":"1 48124U 21027AJ  26263.18244413  .00001523  00000+0  60834-4 0  9992","line2":"2 48124  53.1597 329.8309 0001357  71.3883 288.7266 15.31696795302456","mean_motion":15.31696795,"eccentricity":0.0001357,"inclination_deg":53.1597,"raan_deg":329.8309,"arg_perigee_deg":71.3883,"mean_anomaly_deg":288.7266,"bstar":6.0834e-5,"rev_number":30245,"period_min":94.013384679048,"perigee_km":469.82015527581,"apogee_km":471.67894308526,"semimajor_km":6848.8865491805,"source":"CELESTRAK","updated_at":"2026-09-20T09:00:38.766069Z"}}}